NA0H Weather Reports


Display with metric or nautical units.
time (UTC)temp
F
wind
direction
speed
MPH
gust
MPH
rain 1hr
in
rain 24hr
in
rain mn
in
humidity
%
barometer
mb
20260507144003 38 360 6.0 10.0 0.00 0.00 0.00 68 1008.5
20260507143717 38 360 6.0 10.0 0.00 0.00 0.00 69 1008.5
20260507143003 38 360 7.0 12.0 0.00 0.00 0.00 69 1008.5
20260507142503 38 360 8.0 12.0 0.00 0.00 0.00 69 1008.5
20260507142003 38 360 7.0 10.0 0.00 0.00 0.00 70 1008.4
20260507141503 38 360 7.0 10.0 0.00 0.00 0.00 70 1008.4
20260507141003 38 360 6.0 10.0 0.00 0.00 0.00 70 1008.4
20260507140503 38 360 6.0 11.0 0.00 0.00 0.00 71 1008.4
20260507140003 38 360 8.0 12.0 0.00 0.00 0.00 70 1008.5
20260507135503 38 360 9.0 13.0 0.00 0.00 0.00 70 1008.4
20260507135003 37 360 9.0 13.0 0.00 0.00 0.00 71 1008.4
20260507134719 37 360 8.0 13.0 0.00 0.00 0.00 72 1008.4
20260507134003 36 360 5.0 10.0 0.00 0.00 0.00 74 1008.5
20260507133503 35 360 3.0 10.0 0.00 0.00 0.00 75 1008.5
20260507133003 35 360 2.0 4.0 0.00 0.00 0.00 77 1008.5
20260507132503 34 360 2.0 4.0 0.00 0.00 0.00 77 1008.6
20260507132003 34 360 1.0 4.0 0.00 0.00 0.00 78 1008.6
20260507131717 34 360 1.0 3.0 0.00 0.00 0.00 78 1008.7
20260507131003 33 360 1.0 3.0 0.00 0.00 0.00 78 1008.7
20260507130503 33 360 2.0 4.0 0.00 0.00 0.00 79 1008.7
20260507130003 32 360 2.0 4.0 0.00 0.00 0.00 81 1008.6
20260507125503 32 360 2.0 4.0 0.00 0.00 0.00 85 1008.5
20260507125003 31 360 2.0 4.0 0.00 0.00 0.00 88 1008.6
20260507124503 31 360 1.0 3.0 0.00 0.00 0.00 89 1008.7
20260507124003 30 0 0.0 0.0 0.00 0.00 0.00 89 1008.7
20260507123717 30 0 0.0 0.0 0.00 0.00 0.00 90 1008.8
20260507123003 30 0 0.0 0.0 0.00 0.00 0.00 90 1008.8
20260507122503 30 0 0.0 0.0 0.00 0.00 0.00 90 1008.8
20260507122216 30 0 0.0 0.0 0.00 0.00 0.00 90 1008.8
20260507121503 29 0 0.0 0.0 0.00 0.00 0.00 90 1008.8
20260507121003 29 0 0.0 0.0 0.00 0.00 0.00 90 1008.8
20260507120503 29 0 0.0 0.0 0.00 0.00 0.00 90 1008.7
20260507120216 29 0 0.0 0.0 0.00 0.00 0.00 90 1008.8
20260507115503 29 0 0.0 0.0 0.00 0.00 0.00 90 1008.7
20260507115217 29 0 0.0 0.0 0.00 0.00 0.00 90 1008.7
20260507114718 29 0 0.0 0.0 0.00 0.00 0.00 90 1008.7
20260507114003 28 0 0.0 0.0 0.00 0.00 0.00 90 1008.7
20260507113716 28 0 0.0 0.0 0.00 0.00 0.00 90 1008.7
20260507113003 28 0 0.0 0.0 0.00 0.00 0.00 90 1008.7
20260507112503 28 0 0.0 0.0 0.00 0.00 0.00 90 1008.6
20260507112003 28 0 0.0 0.0 0.00 0.00 0.00 90 1008.7
20260507111503 28 0 0.0 0.0 0.00 0.00 0.00 89 1008.7
20260507111003 27 0 0.0 0.0 0.00 0.00 0.00 89 1008.6
20260507110503 27 0 0.0 0.0 0.00 0.00 0.00 88 1008.6
20260507110219 27 0 0.0 0.0 0.00 0.00 0.00 88 1008.6
20260507105503 28 0 0.0 0.0 0.00 0.00 0.00 88 1008.7
20260507105217 28 0 0.0 0.0 0.00 0.00 0.00 88 1008.7
20260507104503 28 0 0.0 0.0 0.00 0.00 0.00 87 1008.8
20260507104003 28 0 0.0 0.0 0.00 0.00 0.00 87 1008.8
20260507103716 28 0 0.0 0.0 0.00 0.00 0.00 87 1008.8
20260507103003 28 0 0.0 0.0 0.00 0.00 0.00 87 1008.8
20260507102503 28 0 0.0 0.0 0.00 0.00 0.00 87 1008.8
20260507102003 28 0 0.0 0.0 0.00 0.00 0.00 87 1008.8
20260507101503 28 0 0.0 0.0 0.00 0.00 0.00 86 1008.9
20260507101003 28 0 0.0 0.0 0.00 0.00 0.00 84 1008.8
20260507100503 28 0 0.0 0.0 0.00 0.00 0.00 83 1008.8
20260507100003 29 0 0.0 0.0 0.00 0.00 0.00 85 1008.9
20260507095503 29 0 0.0 0.0 0.00 0.00 0.00 85 1008.8
20260507095003 29 0 0.0 0.0 0.00 0.00 0.00 84 1008.8
20260507094503 29 0 0.0 0.0 0.00 0.00 0.00 84 1008.8
20260507094003 29 0 0.0 0.0 0.00 0.00 0.00 82 1008.8
20260507093503 30 0 0.0 0.0 0.00 0.00 0.00 83 1008.8
20260507093003 30 0 0.0 0.0 0.00 0.00 0.00 84 1008.8
20260507092503 29 0 0.0 0.0 0.00 0.00 0.00 83 1008.8
20260507092218 29 0 0.0 0.0 0.00 0.00 0.00 83 1008.8
20260507091503 29 0 0.0 0.0 0.00 0.00 0.00 82 1008.8
20260507091003 30 0 0.0 0.0 0.00 0.00 0.00 82 1008.9
20260507090503 30 0 0.0 0.0 0.00 0.00 0.00 82 1008.9
20260507090003 30 0 0.0 0.0 0.00 0.00 0.00 82 1008.8
20260507085503 30 0 0.0 0.0 0.00 0.00 0.00 81 1008.8
20260507085003 30 0 0.0 0.0 0.00 0.00 0.00 81 1008.8
20260507084717 30 0 0.0 0.0 0.00 0.00 0.00 81 1008.8
20260507084003 30 0 0.0 0.0 0.00 0.00 0.00 81 1008.9
20260507083503 30 0 0.0 0.0 0.00 0.00 0.00 81 1008.9
20260507083003 30 0 0.0 0.0 0.00 0.00 0.00 81 1008.9
20260507082717 30 0 0.0 0.0 0.00 0.00 0.00 81 1008.9
20260507082003 30 0 0.0 0.0 0.00 0.00 0.00 81 1008.9
20260507081503 31 0 0.0 0.0 0.00 0.00 0.00 81 1008.9
20260507081003 30 0 0.0 0.0 0.00 0.00 0.00 81 1008.9
20260507080717 30 0 0.0 0.0 0.00 0.00 0.00 81 1008.9
20260507080003 31 0 0.0 0.0 0.00 0.00 0.00 81 1008.9
20260507075503 31 0 0.0 0.0 0.00 0.00 0.00 82 1008.8
20260507075216 31 0 0.0 0.0 0.00 0.00 0.00 81 1008.9
20260507074503 31 0 0.0 0.0 0.00 0.00 0.00 80 1008.8
20260507074003 32 0 0.0 0.0 0.00 0.00 0.00 81 1008.8
20260507073719 32 0 0.0 0.0 0.00 0.00 0.00 81 1008.8
20260507073003 32 0 0.0 0.0 0.00 0.00 0.00 82 1008.9
20260507072503 32 0 0.0 0.0 0.00 0.00 0.00 81 1009.0
20260507072003 32 0 0.0 0.0 0.00 0.00 0.00 81 1009.0
20260507071719 32 0 0.0 0.0 0.00 0.00 0.00 81 1009.0
20260507071215 31 0 0.0 0.0 0.00 0.00 0.00 81 1009.1
20260507070503 31 0 0.0 0.0 0.00 0.00 0.00 81 1009.0
20260507070005 31 0 0.0 0.0 0.00 0.00 0.00 81 1009.1
20260507065503 31 0 0.0 0.0 0.00 0.00 0.00 81 1009.1
20260507065003 31 0 0.0 0.0 0.00 0.00 0.00 82 1009.1
20260507064503 31 0 0.0 0.0 0.00 0.00 0.00 82 1009.1
20260507064218 31 0 0.0 0.0 0.00 0.00 0.00 82 1009.2
20260507063503 31 0 0.0 0.0 0.00 0.00 0.00 82 1009.3
20260507063003 31 0 0.0 0.0 0.00 0.00 0.00 82 1009.3
20260507062503 31 0 0.0 0.0 0.00 0.00 0.00 81 1009.3
20260507062003 31 0 0.0 0.0 0.00 0.00 0.00 81 1009.4
20260507061503 31 0 0.0 0.0 0.00 0.00 0.00 81 1009.4
20260507061003 31 0 0.0 0.0 0.00 0.00 0.00 80 1009.5
20260507060503 31 0 0.0 0.0 0.00 0.00 0.00 80 1009.6
20260507060003 32 0 0.0 0.0 0.00 0.00 0.00 80 1009.6
20260507055503 32 0 0.0 0.0 0.00 0.00 0.00 79 1009.6
20260507055003 32 360 0.0 1.0 0.00 0.00 0.00 79 1009.6
20260507054503 33 360 0.0 1.0 0.00 0.00 0.00 78 1009.7
20260507054217 33 360 0.0 1.0 0.00 0.00 0.00 78 1009.7
20260507053503 34 360 0.0 1.0 0.00 0.00 0.00 78 1009.7
20260507053003 34 360 0.0 1.0 0.00 0.00 0.00 78 1009.7
20260507052503 34 360 0.0 1.0 0.00 0.00 0.00 78 1009.7
20260507052217 33 0 0.0 0.0 0.00 0.00 0.00 78 1009.8
20260507051503 33 360 0.0 1.0 0.00 0.00 0.00 79 1009.9
20260507051003 33 360 0.0 1.0 0.00 0.00 0.00 79 1009.9
20260507050503 33 360 1.0 2.0 0.00 0.00 0.00 79 1009.8
20260507050003 33 360 1.0 3.0 0.00 0.00 0.00 79 1009.8
20260507045503 33 360 1.0 3.0 0.00 0.00 0.00 79 1009.7
20260507045003 34 0 0.0 0.0 0.00 0.00 0.00 79 1009.8
20260507044503 34 0 0.0 0.0 0.00 0.00 0.00 79 1010.0
20260507044003 34 0 0.0 0.0 0.00 0.00 0.00 79 1010.1
20260507043503 34 0 0.0 0.0 0.00 0.00 0.00 78 1010.2
20260507043003 34 0 0.0 0.0 0.00 0.00 0.00 78 1010.3
20260507042503 35 0 0.0 0.0 0.00 0.00 0.00 77 1010.3
20260507042003 35 0 0.0 0.0 0.00 0.00 0.00 77 1010.2
20260507041503 35 0 0.0 0.0 0.00 0.00 0.00 77 1010.3
20260507041003 35 0 0.0 0.0 0.00 0.00 0.00 77 1010.4
20260507040503 35 360 0.0 1.0 0.00 0.00 0.00 77 1010.4
20260507040003 35 360 0.0 2.0 0.00 0.00 0.00 76 1010.5
20260507035503 35 360 0.0 2.0 0.00 0.00 0.00 74 1010.5
20260507035003 36 360 0.0 1.0 0.00 0.00 0.00 73 1010.6
20260507034715 36 360 0.0 1.0 0.00 0.00 0.00 73 1010.6
20260507034216 36 0 0.0 0.0 0.00 0.00 0.00 71 1010.6
20260507033503 36 360 1.0 2.0 0.00 0.00 0.00 70 1010.6
20260507033003 36 360 1.0 2.0 0.00 0.00 0.00 70 1010.7
20260507032503 36 0 0.0 0.0 0.00 0.00 0.00 69 1010.7
20260507032003 37 0 0.0 0.0 0.00 0.00 0.00 67 1010.7
20260507031717 37 0 0.0 0.0 0.00 0.00 0.00 66 1010.7
20260507031003 37 0 0.0 0.0 0.00 0.00 0.00 65 1010.8
20260507030719 37 0 0.0 0.0 0.00 0.00 0.00 65 1010.8
20260507030003 38 0 0.0 0.0 0.00 0.00 0.00 64 1010.9
20260507025717 38 0 0.0 0.0 0.00 0.00 0.00 64 1010.9
20260507025003 39 0 0.0 0.0 0.00 0.00 0.00 63 1010.9
20260507024503 39 360 0.0 1.0 0.00 0.00 0.00 63 1010.9
20260507024003 40 360 0.0 2.0 0.00 0.00 0.00 63 1010.9
20260507023503 40 360 0.0 2.0 0.00 0.00 0.00 62 1010.9
20260507023003 40 360 1.0 2.0 0.00 0.00 0.00 63 1010.9
20260507022503 40 360 2.0 3.0 0.00 0.00 0.00 63 1010.9
20260507022003 40 360 2.0 4.0 0.00 0.00 0.00 65 1011.0
20260507021503 40 360 3.0 5.0 0.00 0.00 0.00 66 1010.9
20260507021003 40 360 3.0 5.0 0.00 0.00 0.00 65 1010.9
20260507020503 41 360 3.0 5.0 0.00 0.00 0.00 63 1010.9
20260507020003 41 360 3.0 5.0 0.00 0.00 0.00 65 1010.8
20260507015503 41 360 3.0 5.0 0.00 0.00 0.00 64 1010.9
20260507015003 41 360 4.0 6.0 0.00 0.00 0.00 65 1010.9
20260507014503 41 360 4.0 8.0 0.00 0.00 0.00 65 1010.9
20260507014003 41 360 5.0 8.0 0.00 0.00 0.00 64 1010.8
20260507013503 41 360 6.0 11.0 0.00 0.00 0.00 64 1010.8
20260507013003 41 360 8.0 12.0 0.00 0.00 0.00 64 1010.8
20260507012719 41 360 8.0 12.0 0.00 0.00 0.00 63 1010.8
20260507012003 41 360 8.0 12.0 0.00 0.00 0.00 64 1010.8
20260507011503 41 360 8.0 11.0 0.00 0.00 0.00 64 1010.7
20260507011003 41 360 8.0 11.0 0.00 0.00 0.00 62 1010.8
20260507010718 41 360 7.0 11.0 0.00 0.00 0.00 63 1010.8
20260507010003 41 360 8.0 12.0 0.00 0.00 0.00 62 1010.8
20260507005503 41 360 9.0 12.0 0.00 0.00 0.00 63 1010.8
20260507005003 41 360 9.0 12.0 0.00 0.00 0.00 62 1010.8
20260507004503 41 360 8.0 12.0 0.00 0.00 0.00 62 1010.8
20260507004003 41 360 9.0 13.0 0.00 0.00 0.00 63 1010.8
20260507003503 41 360 10.0 13.0 0.00 0.00 0.00 60 1010.8
20260507003003 41 360 10.0 13.0 0.00 0.00 0.00 63 1010.8
20260507002503 41 360 10.0 14.0 0.00 0.00 0.00 63 1010.9
20260507002003 41 360 7.0 14.0 0.00 0.00 0.00 63 1010.8
20260507001503 41 360 7.0 12.0 0.00 0.00 0.00 60 1010.9
20260507001003 41 360 8.0 12.0 0.00 0.00 0.00 65 1010.9
20260507000718 41 360 7.0 12.0 0.00 0.00 0.00 63 1010.9
20260507000003 41 360 8.0 11.0 0.00 0.00 0.00 62 1010.9
20260506235503 41 360 7.0 11.0 0.00 0.00 0.00 63 1011.0
20260506235003 41 360 7.0 10.0 0.00 0.00 0.00 64 1011.0
20260506234503 41 360 6.0 10.0 0.00 0.00 0.00 63 1011.0
20260506234003 41 360 7.0 12.0 0.00 0.00 0.00 61 1011.1
20260506233503 41 360 7.0 12.0 0.00 0.00 0.00 64 1011.2
20260506233003 41 360 7.0 11.0 0.00 0.00 0.00 64 1011.2
20260506232503 41 360 7.0 11.0 0.00 0.00 0.00 62 1011.2
20260506232003 41 360 6.0 10.0 0.00 0.00 0.00 62 1011.3
20260506231503 41 360 6.0 9.0 0.00 0.00 0.00 64 1011.3
20260506231003 41 360 6.0 11.0 0.00 0.00 0.00 64 1011.2
20260506230503 41 360 6.0 11.0 0.00 0.00 0.00 64 1011.3
20260506230003 41 360 7.0 11.0 0.00 0.00 0.00 66 1011.3
20260506225503 41 360 7.0 11.0 0.00 0.00 0.00 63 1011.3
20260506225003 41 360 6.0 11.0 0.00 0.00 0.00 64 1011.3
20260506224503 41 360 6.0 9.0 0.00 0.00 0.00 65 1011.3
20260506224003 41 360 6.0 10.0 0.00 0.00 0.00 64 1011.4
20260506223715 40 360 6.0 10.0 0.00 0.00 0.00 65 1011.4
20260506223216 40 360 6.0 10.0 0.00 0.00 0.00 65 1011.4
20260506222503 40 360 5.0 10.0 0.00 0.00 0.00 63 1011.5
20260506222003 41 360 5.0 9.0 0.00 0.00 0.00 65 1011.5
20260506221503 41 360 7.0 15.0 0.00 0.00 0.00 64 1011.6
20260506221003 41 360 10.0 16.0 0.00 0.00 0.00 63 1011.6
20260506220503 41 360 12.0 16.0 0.00 0.00 0.00 63 1011.5
20260506220218 41 360 12.0 16.0 0.00 0.00 0.00 64 1011.5
20260506215503 41 360 11.0 17.0 0.00 0.00 0.00 66 1011.5
20260506215003 41 360 11.0 17.0 0.00 0.00 0.00 63 1011.5
20260506214503 41 360 10.0 17.0 0.00 0.00 0.00 63 1011.5
20260506214003 41 360 9.0 13.0 0.00 0.00 0.00 63 1011.5
20260506213503 41 360 9.0 13.0 0.00 0.00 0.00 65 1011.6
20260506213003 40 360 8.0 12.0 0.00 0.00 0.00 65 1011.6
20260506212717 40 360 8.0 12.0 0.00 0.00 0.00 65 1011.6
20260506212003 40 360 9.0 13.0 0.00 0.00 0.00 63 1011.7
20260506211503 40 360 9.0 13.0 0.00 0.00 0.00 64 1011.7
20260506211216 40 360 10.0 14.0 0.00 0.00 0.00 65 1011.7
20260506210503 40 360 12.0 16.0 0.00 0.00 0.00 65 1011.7
20260506210003 40 360 12.0 16.0 0.00 0.00 0.00 66 1011.8
20260506205503 40 360 12.0 16.0 0.00 0.00 0.00 65 1011.8
20260506205003 40 360 13.0 19.0 0.00 0.00 0.00 65 1011.8
20260506204503 40 360 13.0 19.0 0.00 0.00 0.00 65 1011.8
20260506204003 40 360 11.0 18.0 0.00 0.00 0.00 64 1011.9
20260506203503 40 360 10.0 18.0 0.00 0.00 0.00 65 1011.9
20260506203003 40 360 11.0 18.0 0.00 0.00 0.00 65 1011.9
20260506202503 40 360 12.0 18.0 0.00 0.00 0.00 65 1011.9
20260506202003 40 360 12.0 18.0 0.00 0.00 0.00 66 1012.0
20260506201503 40 360 12.0 16.0 0.00 0.00 0.00 66 1012.0
20260506201215 40 360 12.0 17.0 0.00 0.00 0.00 66 1011.9
20260506200503 40 360 13.0 18.0 0.00 0.00 0.00 66 1012.0
20260506200003 40 360 12.0 19.0 0.00 0.00 0.00 66 1012.1
20260506195503 40 360 11.0 19.0 0.00 0.00 0.00 64 1012.0
20260506195003 40 360 9.0 15.0 0.00 0.00 0.00 64 1012.1
20260506194716 40 360 10.0 15.0 0.00 0.00 0.00 65 1012.1
20260506194003 40 360 12.0 16.0 0.00 0.00 0.00 66 1012.1
20260506193503 40 360 11.0 16.0 0.00 0.00 0.00 66 1012.1
20260506193219 40 360 10.0 14.0 0.00 0.00 0.00 67 1012.2
20260506192503 40 360 11.0 18.0 0.00 0.00 0.00 65 1012.3
20260506192003 40 360 13.0 20.0 0.00 0.00 0.00 66 1012.2
20260506191503 40 360 13.0 20.0 0.00 0.00 0.00 67 1012.3
20260506191219 40 360 12.0 18.0 0.00 0.00 0.00 65 1012.3
20260506190503 40 360 11.0 16.0 0.00 0.00 0.00 67 1012.2
20260506190003 40 360 10.0 16.0 0.00 0.00 0.00 66 1012.2
20260506185503 40 360 7.0 13.0 0.00 0.00 0.00 62 1012.2
20260506185003 40 360 8.0 18.0 0.00 0.00 0.00 65 1012.2
20260506184503 39 360 11.0 18.0 0.00 0.00 0.00 67 1012.2
20260506184003 39 360 12.0 20.0 0.00 0.00 0.00 67 1012.3
20260506183503 39 360 11.0 20.0 0.00 0.00 0.00 67 1012.3
20260506183003 39 360 9.0 15.0 0.00 0.00 0.00 65 1012.3
20260506182503 39 360 10.0 15.0 0.00 0.00 0.00 67 1012.4
20260506182003 39 360 12.0 16.0 0.00 0.00 0.00 68 1012.4
20260506181503 39 360 12.0 17.0 0.00 0.00 0.00 68 1012.5
20260506181003 38 360 11.0 17.0 0.00 0.00 0.00 69 1012.5
20260506180716 38 360 10.0 17.0 0.00 0.00 0.00 71 1012.6
20260506180004 38 360 9.0 15.0 0.00 0.00 0.00 72 1012.6
20260506175503 38 360 10.0 15.0 0.00 0.00 0.00 74 1012.7
20260506175219 38 360 11.0 15.0 0.00 0.00 0.00 72 1012.7
20260506174503 38 360 10.0 15.0 0.00 0.00 0.00 74 1012.7
20260506174003 37 360 10.0 15.0 0.00 0.00 0.00 74 1012.8
20260506173503 37 360 10.0 14.0 0.00 0.00 0.00 74 1012.8
20260506173003 37 360 10.0 17.0 0.00 0.00 0.00 75 1012.9
20260506172503 37 360 11.0 17.0 0.00 0.00 0.00 74 1012.9
20260506172003 37 360 11.0 16.0 0.00 0.00 0.00 76 1013.1
20260506171717 37 360 11.0 16.0 0.00 0.00 0.00 78 1013.0
20260506171003 37 360 10.0 16.0 0.00 0.00 0.00 77 1013.1
20260506170503 36 360 10.0 17.0 0.00 0.00 0.00 78 1013.1
20260506170003 36 360 11.0 18.0 0.00 0.00 0.00 81 1013.2
20260506165503 36 360 12.0 18.0 0.00 0.00 0.00 81 1013.3
20260506165218 36 360 12.0 18.0 0.00 0.00 0.00 82 1013.3
20260506164503 36 360 10.0 17.0 0.00 0.00 0.00 80 1013.2
20260506164003 35 360 12.0 18.0 0.00 0.00 0.00 83 1013.3
20260506163503 35 360 13.0 18.0 0.00 0.00 0.00 84 1013.4
20260506163003 35 360 11.0 17.0 0.00 0.00 0.00 84 1013.4
20260506162719 35 360 10.0 17.0 0.00 0.00 0.00 84 1013.3
20260506162003 35 360 13.0 17.0 0.00 0.00 0.00 85 1013.5
20260506161717 35 360 13.0 17.0 0.00 0.00 0.00 86 1013.5
20260506161218 35 360 12.0 16.0 0.00 0.00 0.00 84 1013.4
20260506160503 34 360 12.0 17.0 0.00 0.00 0.00 84 1013.5
20260506160216 35 360 12.0 17.0 0.00 0.00 0.00 85 1013.5
20260506155503 35 360 11.0 15.0 0.00 0.00 0.00 85 1013.5
20260506155003 35 360 10.0 15.0 0.00 0.00 0.00 85 1013.5
20260506154503 35 360 9.0 14.0 0.00 0.00 0.00 86 1013.6
20260506154003 34 360 10.0 14.0 0.00 0.00 0.00 86 1013.6
20260506153717 34 360 11.0 16.0 0.00 0.00 0.00 87 1013.6
20260506153003 34 360 11.0 16.0 0.00 0.00 0.00 86 1013.5
20260506152503 34 360 11.0 16.0 0.00 0.00 0.00 87 1013.5
20260506152003 34 360 11.0 16.0 0.00 0.00 0.00 87 1013.6
20260506151503 34 360 11.0 16.0 0.00 0.00 0.00 87 1013.5
20260506151003 34 360 11.0 16.0 0.00 0.00 0.00 87 1013.6
20260506150503 34 360 11.0 16.0 0.00 0.00 0.00 87 1013.5
20260506150003 34 360 10.0 16.0 0.00 0.00 0.00 88 1013.6
20260506145503 34 360 10.0 16.0 0.00 0.00 0.00 88 1013.7
20260506145003 33 360 10.0 14.0 0.00 0.00 0.00 87 1013.7
20260506144503 33 360 11.0 14.0 0.00 0.00 0.00 87 1013.6